Change the Weather History Date:

Wednesday, February 27, 2013

  Actual Average Record
Temperature  
Mean Temperature 34 °F -  
Max Temperature 37 °F - - ()
Min Temperature 30 °F - - ()
Degree Days  
Heating Degree Days 32    
Moisture  
Dew Point 33 °F    
Average Humidity 96    
Maximum Humidity 100    
Minimum Humidity 81    
Precipitation  
Precipitation 0.00 in - - ()
Sea Level Pressure  
Sea Level Pressure 30.37 in    
Wind  
Wind Speed 4 mph ()    
Max Wind Speed 8 mph    
Max Gust Speed -    
Visibility 3.9 miles    
Events Fog    
T = Trace of Precipitation, MM = Missing Value Source: Averaged Metar Reports

Daily Weather History Graph

Daily Weather History Graph

Search for Another Location

Airport or City:

Trip Planner

Search our weather history database for the weather conditions in past years. The results will help you decide how hot, cold, wet, or windy it might be!

Date:

Astronomy

Feb. 27, 2013 Rise Set
Actual Time 7:32 AM EET 6:04 PM EET
Civil Twilight 6:54 AM EET 6:42 PM EET
Nautical Twilight 6:11 AM EET 7:26 PM EET
Astronomical Twilight 5:27 AM EET 8:10 PM EET
Moon 8:40 PM EET (2/27) 7:31 AM EET (2/27)
Length of Visible Light 11h 47m
Length of Day
10h 31m
Full, 97% of the Moon is Illuminated
Feb 27
Full
Mar 4
Last Quarter
Mar 11
New
Mar 19
First Quarter
Mar 27
Full

Hourly Weather History & Observations

Time (EET) Temp. Windchill Dew Point Humidity Pressure Visibility Wind Dir Wind Speed Gust Speed Precip Events Conditions
12:20 AM 32.0 °F 28.7 °F 32.0 °F 100% 30.45 in 4.3 mi West 3.5 mph - N/A   Overcast
12:50 AM 32.0 °F 26.4 °F 32.0 °F 100% 30.45 in 0.8 mi WSW 5.8 mph - N/A   Overcast
1:20 AM 32.0 °F 26.4 °F 32.0 °F 100% 30.45 in 0.4 mi SW 5.8 mph - N/A Fog Fog
1:50 AM 32.0 °F 27.5 °F 32.0 °F 100% 30.45 in 0.3 mi SW 4.6 mph - N/A Fog Fog
2:00 AM 31 °F - 31 °F 100% 30.46 in 2 mi SW 4.5 mph - -   Mist
2:20 AM 32.0 °F 26.4 °F 32.0 °F 100% 30.42 in 0.3 mi SW 5.8 mph - N/A Fog Fog
2:50 AM 32.0 °F 26.4 °F 32.0 °F 100% 30.42 in 0.5 mi SW 5.8 mph - N/A Fog Fog
3:20 AM 32.0 °F 27.5 °F 32.0 °F 100% 30.42 in 0.7 mi SW 4.6 mph - N/A Fog Fog
3:50 AM 32.0 °F 28.7 °F 32.0 °F 100% 30.42 in 5.0 mi WSW 3.5 mph - N/A   Partly Cloudy
4:20 AM 32.0 °F 28.7 °F 32.0 °F 100% 30.42 in - WSW 3.5 mph - N/A   Clear
4:50 AM 32.0 °F 27.5 °F 32.0 °F 100% 30.39 in 5.0 mi WSW 4.6 mph - N/A   Unknown
5:20 AM 32.0 °F 28.7 °F 32.0 °F 100% 30.39 in 5.6 mi West 3.5 mph - N/A   Unknown
5:50 AM 32.0 °F 27.5 °F 32.0 °F 100% 30.39 in 5.6 mi WSW 4.6 mph - N/A   Unknown
6:20 AM 33.8 °F 29.6 °F 33.8 °F 100% 30.36 in 5.6 mi SW 4.6 mph - N/A   Unknown
6:50 AM 33.8 °F 30.8 °F 33.8 °F 100% 30.39 in 5.6 mi WSW 3.5 mph - N/A   Mostly Cloudy
7:20 AM 33.8 °F 30.8 °F 33.8 °F 100% 30.39 in 5.0 mi West 3.5 mph - N/A   Unknown
7:50 AM 33.8 °F 30.8 °F 33.8 °F 100% 30.39 in 5.6 mi West 3.5 mph - N/A   Unknown
8:00 AM 33 °F - 33 °F 100% 30.41 in 5 mi West 4.5 mph - -   Mist
8:20 AM 33.8 °F 30.8 °F 33.8 °F 100% 30.39 in 5.6 mi West 3.5 mph - N/A   Unknown
8:50 AM 33.8 °F - 33.8 °F 100% 30.39 in - West 2.3 mph - N/A   Clear
9:20 AM 33.8 °F - 33.8 °F 100% 30.39 in - WSW 2.3 mph - N/A   Clear
9:50 AM 35.6 °F 31.7 °F 33.8 °F 93% 30.39 in - SW 4.6 mph - N/A   Clear
10:50 AM 37.4 °F 32.8 °F 33.8 °F 87% 30.39 in - West 5.8 mph - N/A   Clear
11:20 AM 37.4 °F 32.8 °F 33.8 °F 87% 30.39 in - WNW 5.8 mph - N/A   Clear
11:50 AM 37.4 °F 32.8 °F 33.8 °F 87% 30.39 in - WNW 5.8 mph - N/A   Clear
12:20 PM 37.4 °F 32.8 °F 33.8 °F 87% 30.39 in - WNW 5.8 mph - N/A   Clear
12:50 PM 37.4 °F 32.1 °F 33.8 °F 87% 30.39 in - West 6.9 mph - N/A   Clear
1:20 PM 39.2 °F 35.9 °F 33.8 °F 81% 30.39 in - West 4.6 mph - N/A   Clear
1:50 PM 39.2 °F 35.9 °F 33.8 °F 81% 30.36 in - West 4.6 mph - N/A   Clear
2:00 PM 37 °F - 34 °F 86% 30.40 in 12 mi WSW 4.5 mph - -   Scattered Clouds
2:20 PM 39.2 °F 35.0 °F 33.8 °F 81% 30.36 in - WSW 5.8 mph - N/A   Clear
2:50 PM 37.4 °F 32.1 °F 33.8 °F 87% 30.36 in - SW 6.9 mph - N/A   Clear
3:20 PM 37.4 °F 32.8 °F 35.6 °F 93% 30.36 in - SW 5.8 mph - N/A   Clear
3:50 PM 37.4 °F 31.4 °F 33.8 °F 87% 30.36 in - SW 8.1 mph - N/A   Clear
4:20 PM 37.4 °F 32.1 °F 33.8 °F 87% 30.33 in - WSW 6.9 mph - N/A   Clear
4:50 PM 35.6 °F 29.9 °F 33.8 °F 93% 30.33 in - WSW 6.9 mph - N/A   Clear
5:20 PM 35.6 °F 29.9 °F 33.8 °F 93% 30.33 in - WSW 6.9 mph - N/A   Clear
5:50 PM 33.8 °F 28.6 °F 33.8 °F 100% 30.33 in - WSW 5.8 mph - N/A   Clear
6:20 PM 32.0 °F 27.5 °F 32.0 °F 100% 30.33 in 4.3 mi WSW 4.6 mph - N/A   Unknown
6:50 PM 32.0 °F - 32.0 °F 100% 30.33 in - SW 2.3 mph - N/A   Mist
7:20 PM 32.0 °F 27.5 °F 32.0 °F 100% 30.33 in 3.7 mi SW 4.6 mph - N/A   Mist
7:50 PM 30.2 °F 26.7 °F 30.2 °F 100% 30.30 in 3.7 mi SW 3.5 mph - N/A   Partly Cloudy
8:00 PM 33 °F - 32 °F 95% 30.33 in 2 mi SW 4.5 mph - -   Mist
8:20 PM 32.0 °F 27.5 °F 32.0 °F 100% 30.30 in 0.7 mi SSW 4.6 mph - N/A Fog Fog
8:50 PM 32.0 °F 27.5 °F 32.0 °F 100% 30.30 in 1.1 mi SW 4.6 mph - N/A Fog Fog
9:20 PM 32.0 °F 26.4 °F 32.0 °F 100% 30.30 in 4.3 mi SSW 5.8 mph - N/A   Mostly Cloudy
9:50 PM 32.0 °F 26.4 °F 32.0 °F 100% 30.30 in - SW 5.8 mph - N/A   Mostly Cloudy
10:20 PM 32.0 °F 28.7 °F 32.0 °F 100% 30.30 in 4.3 mi SW 3.5 mph - N/A   Mostly Cloudy
10:50 PM 32.0 °F 28.7 °F 32.0 °F 100% 30.27 in 5.0 mi SSW 3.5 mph - N/A Fog Fog
11:20 PM 32.0 °F 26.4 °F 32.0 °F 100% 30.27 in 6.2 mi SSW 5.8 mph - N/A   Partly Cloudy
11:50 PM 32.0 °F 25.6 °F 32.0 °F 100% 30.27 in 6.2 mi SSW 6.9 mph - N/A   Partly Cloudy